#timestamp,LO_Frequency,Hit,StdDev 
1562155215.5,286046999.5,N
1562155235.4,286046998.7,N
1562155255.2,286047000.8,N
1562155275.1,286047001.0,N
1562155276.0,286047001.0,N
1562155295.8,286047001.0,N
1562155315.6,286047000.2,N
1562155335.5,286047000.0,N
1562155355.3,286047000.7,N
1562155375.2,286047000.0,N
1562155395.9,286047001.9,N
1562155415.7,286047002.4,N
1562155435.6,286046999.7,N
1562155455.4,286047000.5,N
1562155475.2,286047002.8,N
1562155495.1,286046999.8,N
1562155496.0,286046999.8,N
1562155515.3,286047000.2,N
1562155535.2,286047002.3,N
1562155555.0,286047002.7,N
1562155555.9,286047002.7,N
1562155575.8,286047001.6,N
1562155595.6,286047002.2,N
1562155615.4,286047000.4,N
1562155635.3,286046998.1,N
1562155655.1,286046998.5,N
1562155675.9,286046998.5,N
1562155695.7,286046999.9,N
1562155715.5,286047002.7,N
1562155735.4,286047002.3,N
1562155755.2,286047002.0,N
1562155775.1,286047002.1,N
1562155776.0,286047002.1,N
1562155795.8,286047003.9,N
1562155815.6,286047002.4,N
1562155835.5,286047000.1,N
1562155855.3,286047000.1,N
1562155875.2,286047002.0,N
1562155895.0,286047002.6,N
1562155895.9,286047002.6,N
1562155915.7,286047002.2,N
1562155935.6,286047002.0,N
1562155955.4,286047002.2,N
1562155975.3,286047004.3,N
1562155995.1,286047001.4,N
1562155996.0,286047001.4,N
1562156015.9,286047001.8,N
1562156035.7,286047004.0,N
1562156055.5,286047003.1,N
1562156075.4,286047003.7,N
1562156095.2,286047003.5,N
1562156115.0,286047003.6,N
1562156115.9,286047003.6,N
1562156135.8,286047004.3,N
1562156155.6,286047004.2,N
1562156175.5,286047003.8,N
1562156195.3,286047004.2,N
1562156215.1,286047004.0,Y
1562156235.9,286047000.2,P
1562156255.7,286047001.1,N
1562156275.6,286046998.6,N
1562156295.4,286047000.8,N
1562156315.2,286046998.2,N
1562156335.1,286047000.7,N
1562156336.0,286047000.7,N
1562156355.8,286047000.8,N
1562156375.6,286047000.5,N
1562156395.5,286047000.8,N
1562156415.3,286047001.1,N
1562156435.2,286046998.7,N
1562156455.9,286046998.8,N
1562156475.7,286046997.3,N
1562156495.6,286046999.6,N
1562156515.4,286046999.1,N
1562156535.3,286046998.6,N
1562156555.1,286046999.0,N
1562156556.0,286046999.0,N
1562156575.8,286046996.5,N
1562156595.7,286046996.5,N
1562156615.5,286046999.1,N
1562156635.4,286046999.4,N
1562156655.2,286046999.2,N
1562156675.0,286046997.3,N
1562156675.9,286046997.3,N
1562156695.8,286046997.7,N
1562156715.6,286046997.2,N
1562156735.4,286046996.7,N
1562156755.3,286046995.4,N
1562156775.1,286046995.3,Y
1562156795.9,286046997.9,P
1562156815.7,286046997.3,P
1562156835.5,286046996.8,P
1562156855.4,286046996.9,Y
1562156875.2,286047000.3,P
1562156895.1,286047000.3,N
1562156896.0,286047000.3,N
1562156915.8,286047000.6,N
1562156935.6,286046998.3,N
1562156955.5,286046998.2,N
1562156975.3,286046998.6,N
1562156995.1,286046998.1,N
1562157015.9,286047000.8,N
1562157035.7,286047000.8,N
1562157055.6,286047000.7,N
1562157075.4,286046998.1,N
1562157095.2,286047000.8,N
1562157115.1,286046998.1,N
1562157116.0,286046998.1,N
1562157135.8,286047001.0,N
1562157155.7,286047000.9,N
1562157175.5,286047000.3,N
1562157195.3,286046999.7,N
1562157215.2,286046999.9,N
1562157235.0,286046998.3,N
1562157235.9,286046998.3,N
1562157255.8,286046998.2,N
1562157275.6,286047000.7,N
1562157295.4,286047000.5,N
1562157315.3,286047001.0,N
1562157335.1,286047001.0,N
1562157355.8,286047001.1,N
1562157375.7,286046999.4,N
1562157395.5,286046998.5,N
1562157415.4,286046998.7,N
1562157435.2,286047000.4,N
1562157455.0,286047000.0,N
1562157456.0,286047000.0,N
1562157475.8,286046999.7,N
1562157495.6,286047002.6,N
1562157515.5,286047001.9,N
1562157535.3,286047002.0,N
1562157555.1,286047002.8,N
1562157575.9,286047002.7,N
1562157595.7,286047000.0,N
1562157615.6,286047000.1,N
1562157635.4,286046998.2,N
1562157655.2,286046998.5,N
1562157675.1,286046998.2,N
1562157676.0,286046998.2,N
1562157695.8,286046998.2,N
1562157715.6,286046999.1,N
1562157735.5,286046997.8,N
1562157755.3,286046999.2,N
1562157775.2,286046998.8,N
1562157795.9,286046998.8,N
1562157815.7,286046998.7,N
1562157835.6,286046999.4,N
1562157855.4,286046999.2,N
1562157875.3,286046998.4,N
1562157895.1,286046998.7,N
1562157896.0,286046998.7,N
1562157915.8,286046998.8,N
1562157935.7,286046996.6,N
1562157955.5,286046997.5,N
1562157975.3,286046997.3,N
1562157995.2,286046997.5,N
1562158015.0,286046998.0,N
1562158015.9,286046998.0,N
1562158035.8,286046995.1,Y
1562158055.6,286046999.1,P
1562158075.1,286047000.0,N
1562158076.0,286047000.0,N
1562158095.8,286046998.7,Y
1562158115.7,286046998.9,P
1562158135.5,286047000.9,N
1562158155.3,286047002.4,N
1562158175.2,286047002.1,N
1562158195.0,286047004.0,N
1562158195.9,286047004.0,N
1562158215.8,286047002.3,N
1562158235.6,286047002.6,N
1562158255.4,286047000.0,N
1562158275.3,286047000.3,N
1562158295.1,286047000.8,N
1562158315.8,286046999.9,N
1562158335.7,286047002.0,N
1562158355.5,286047002.6,N
1562158375.4,286047002.2,N
1562158395.2,286047001.7,N
1562158415.0,286047002.1,N
1562158415.9,286047002.1,N
1562158435.8,286047004.2,Y
1562158455.6,286046999.8,P
1562158475.5,286047002.3,N
1562158495.3,286047002.1,N
1562158515.1,286047002.8,N
1562158535.9,286047004.4,Y
1562158555.7,286047001.1,P
1562158575.5,286047000.6,N
1562158595.4,286046999.3,N
1562158615.2,286046996.9,Y
1562158635.1,286046997.8,P
1562158636.0,286046997.8,N
1562158655.8,286046996.5,N
1562158675.6,286046999.4,N
1562158695.5,286046998.7,N
1562158715.3,286047000.5,N
1562158735.2,286047001.2,N
1562158755.9,286047000.8,N
1562158775.7,286047000.9,N
1562158795.6,286047001.2,N
